Regional Weather Roundup
Issued by NWS Cleveland, OH

Home | Current Version | Previous Version | Graphics & Text | Print | Product List | Glossary On
Versions: 1 2 3 4 5 6 7 8 9 10 11 12 13 14 15 16 17 18 19 20 21 22 23 24 25 26 27 28 29 30 31 32 33 34 35 36 37 38 39 40 41 42 43 44 45 46 47 48 49 50
787
ASUS41 KCLE 272002
RWRCLE
OHIO REGIONAL WEATHER ROUNDUP
NATIONAL WEATHER SERVICE CLEVELAND, OH
400 PM EDT FRI MAY 27 2016

NOTE: "FAIR" INDICATES FEW OR NO CLOUDS BELOW 12,000 FEET WITH NO
SIGNIFICANT WEATHER AND/OR OBSTRUCTIONS TO VISIBILITY.

OHZ001>008-015>018-024>027-034-035-043-044-272100-
   NORTHWEST OHIO

CITY           SKY/WX    TMP DP  RH WIND       PRES   REMARKS
DEFIANCE       MOSUNNY   86  62  44 S10       29.96F
FINDLAY        MOSUNNY   87  59  38 SW7       29.97F
TOLEDO EXPRESS PTSUNNY   85  63  47 W12       29.97F
TOLEDO EXEC    CLOUDY    86  62  44 W6        29.98F
LIMA           MOSUNNY   87  62  43 SW9       29.98F
$$

OHZ009>014-019>023-028>033-038-089-272100-
   NORTHEAST OHIO

CITY           SKY/WX    TMP DP  RH WIND       PRES   REMARKS
CLE-HOPKINS    PTSUNNY   86  59  39 SW9       30.02F
CLE-LAKEFRONT  PTSUNNY   74  64  71 NE7       30.00F
CUY CO. ARPT   PTSUNNY   84  66  54 N8        30.02F
LORAIN-ELYRIA  CLOUDY    85  59  41 SW9       30.00F
ASHTABULA      MOSUNNY   82  64  54 NW7       30.03F
AKRON-CANTON   PTSUNNY   85  63  47 SW14      30.03F
WOOSTER        PTSUNNY   84  60  44 SW5       30.03F
MANSFIELD      SUNNY     85  62  46 SW7       30.03F
YOUNGSTOWN     PTSUNNY   84  60  44 SW7G18    30.04F
$$

OHZ042-051>053-060>062-070>072-077>081-272100-
  SOUTHWEST OHIO

CITY           SKY/WX    TMP DP  RH WIND       PRES   REMARKS
CINC-COVINGTON MOSUNNY   84  64  50 S13G18    30.01F
CINC-LUNKEN    MOSUNNY   85  67  54 S14G20    30.00F
HAMILTON       SUNNY     87  63  44 SW10G18   30.00F
DAYTON         MOSUNNY   86  62  44 SW13      30.01F
WRIGHT-PAT AFB PTSUNNY   87  63  45 S10       29.99F
DAYTON GENERAL MOSUNNY   86  63  45 SW10      30.00F
WILMINGTON     MOSUNNY   85  64  49 SW13      30.02F
$$

OHZ036-037-039>041-045>050-054>059-063>069-073>076-082>088-272100-
  CENTRAL AND SOUTHEAST OHIO

CITY           SKY/WX    TMP DP  RH WIND       PRES   REMARKS
COLUMBUS       PTSUNNY   87  61  41 SW9       30.00F
OSU AIRPORT    NOT AVBL
BOLTON FIELD   NOT AVBL
RICKENBACK AFB NOT AVBL
NEWARK         MOSUNNY   88  62  41 SW5       30.01F
MARION         MOSUNNY   86  61  42 SW8       30.00F
LANCASTER      SUNNY     86  63  45 SW10G16   30.02F
ZANESVILLE     SUNNY     89  64  43 SW8       30.03F HX  90
NEW PHILLY     MOSUNNY   88  62  41 MISG      30.03F
$$




USA.gov is the U.S. government's official web portal to all federal, state and local government web resources and services.